TimeEST,TemperatureF,Dew PointF,Humidity,Sea Level PressureIn,VisibilityMPH,Wind Direction,Wind SpeedMPH,Gust SpeedMPH,PrecipitationIn,Events,Conditions,WindDirDegrees,DateUTC
12:53 AM,43.0,26.1,51,30.27,10.0,SE,3.5,-,N/A,,Clear,140,2013-11-21 05:53:00
1:53 AM,42.1,27.0,55,30.27,10.0,SE,4.6,-,N/A,,Clear,140,2013-11-21 06:53:00
2:53 AM,43.0,27.0,53,30.28,10.0,SSE,4.6,-,N/A,,Clear,150,2013-11-21 07:53:00
3:53 AM,39.0,30.0,70,30.29,10.0,Calm,Calm,-,N/A,,Clear,0,2013-11-21 08:53:00
4:53 AM,39.0,30.0,70,30.30,10.0,Calm,Calm,-,N/A,,Clear,0,2013-11-21 09:53:00
5:53 AM,39.9,28.9,65,30.32,10.0,Calm,Calm,-,N/A,,Partly Cloudy,0,2013-11-21 10:53:00
6:06 AM,39.0,30.9,73,30.31,10.0,Calm,Calm,-,N/A,,Mostly Cloudy,0,2013-11-21 11:06:00
6:26 AM,39.0,30.9,73,30.31,10.0,Calm,Calm,-,N/A,,Scattered Clouds,0,2013-11-21 11:26:00
6:53 AM,39.9,30.9,70,30.34,10.0,Calm,Calm,-,N/A,,Partly Cloudy,0,2013-11-21 11:53:00
7:05 AM,39.9,30.9,70,30.33,10.0,Calm,Calm,-,N/A,,Mostly Cloudy,0,2013-11-21 12:05:00
7:31 AM,39.0,32.0,76,30.32,10.0,Calm,Calm,-,N/A,,Partly Cloudy,0,2013-11-21 12:31:00
7:53 AM,41.0,32.0,70,30.33,10.0,SE,4.6,-,N/A,,Clear,140,2013-11-21 12:53:00
8:53 AM,48.0,35.1,61,30.34,10.0,SE,4.6,-,N/A,,Clear,140,2013-11-21 13:53:00
9:16 AM,48.9,35.1,59,30.33,10.0,SE,5.8,-,N/A,,Mostly Cloudy,140,2013-11-21 14:16:00
9:53 AM,53.1,37.0,55,30.34,10.0,SE,3.5,-,N/A,,Scattered Clouds,140,2013-11-21 14:53:00
10:53 AM,57.0,39.0,51,30.35,10.0,South,4.6,-,N/A,,Mostly Cloudy,190,2013-11-21 15:53:00
11:53 AM,60.1,39.9,47,30.32,10.0,SW,9.2,-,N/A,,Scattered Clouds,220,2013-11-21 16:53:00
12:53 PM,62.1,43.0,50,30.29,10.0,SSW,5.8,-,N/A,,Overcast,200,2013-11-21 17:53:00
1:02 PM,62.1,43.0,50,30.28,10.0,South,4.6,-,N/A,,Overcast,170,2013-11-21 18:02:00
1:53 PM,62.1,44.1,52,30.27,10.0,SSW,9.2,-,N/A,,Overcast,200,2013-11-21 18:53:00
2:53 PM,62.1,44.1,52,30.25,10.0,South,10.4,-,N/A,,Overcast,180,2013-11-21 19:53:00
3:53 PM,62.1,45.0,53,30.25,10.0,Variable,6.9,-,N/A,,Overcast,0,2013-11-21 20:53:00
4:53 PM,61.0,46.0,58,30.26,10.0,South,6.9,-,N/A,,Overcast,190,2013-11-21 21:53:00
5:53 PM,59.0,45.0,60,30.25,10.0,SSE,3.5,-,N/A,,Mostly Cloudy,160,2013-11-21 22:53:00
6:53 PM,59.0,46.0,62,30.27,10.0,Calm,Calm,-,N/A,,Overcast,0,2013-11-21 23:53:00
7:53 PM,59.0,46.9,64,30.29,10.0,South,3.5,-,N/A,,Overcast,170,2013-11-22 00:53:00
8:24 PM,57.9,46.9,67,30.29,10.0,WSW,4.6,-,N/A,,Overcast,250,2013-11-22 01:24:00
8:32 PM,57.9,46.9,67,30.30,10.0,WSW,6.9,-,N/A,,Overcast,250,2013-11-22 01:32:00
8:51 PM,59.0,46.4,63,30.29,10.0,SSW,5.8,-,N/A,,Mostly Cloudy,200,2013-11-22 01:51:00
8:53 PM,57.9,46.0,65,30.29,10.0,South,5.8,-,N/A,,Overcast,190,2013-11-22 01:53:00
9:02 PM,57.9,46.0,65,30.29,10.0,South,4.6,-,N/A,,Mostly Cloudy,190,2013-11-22 02:02:00
9:53 PM,57.0,46.0,67,30.29,10.0,Calm,Calm,-,N/A,,Mostly Cloudy,0,2013-11-22 02:53:00
10:53 PM,57.9,46.9,67,30.25,10.0,SSE,5.8,-,N/A,,Mostly Cloudy,160,2013-11-22 03:53:00
11:53 PM,59.0,48.0,67,30.25,10.0,SSW,5.8,-,N/A,,Overcast,210,2013-11-22 04:53:00